Weather Service Report


948 
ASUS43 KLOT 201700
RWRIL 

ILLINOIS REGIONAL WEATHER ROUNDUP
NATIONAL WEATHER SERVICE CHICAGO/ROMEOVILLE IL
1200 PM CDT WED AUG 20 2014

NOTE: "FAIR" INDICATES FEW OR NO CLOUDS BELOW 12,000 FEET WITH NO
SIGNIFICANT WEATHER AND/OR OBSTRUCTIONS TO VISIBILITY.

* THESE STATIONS ARE NOT UNDER NWS QUALITY CONTROL. THEY ALSO MAY NOT
  REPORT WEATHER SUCH AS PRECIPITATION OR FOG.

ILZ001-002-007-009-015-016-024-201800-
NORTHWEST ILLINOIS
  
CITY           SKY/WX    TMP DP  RH WIND       PRES   REMARKS
MOLINE         CLOUDY    77  68  73 W5        29.94R                  
STERLING*      CLOUDY    81  68  65 W8        29.93R HX  83           
$$

ILZ003-004-008-010-011-017-018-201800-
NORTH CENTRAL ILLINOIS
  
CITY           SKY/WX    TMP DP  RH WIND       PRES   REMARKS
ROCKFORD       PTSUNNY   83  67  58 W8        29.92R HX  85           
ROCHELLE*      PTSUNNY   80  66  63 W12       29.92F HX  82           
$$

ILZ005-006-012>014-019>023-201800-
NORTHEAST ILLINOIS
  
CITY           SKY/WX    TMP DP  RH WIND       PRES   REMARKS
CHICAGO-OHARE  PTSUNNY   82  64  54 SW12      29.91R HX  83           
CHICAGO-MIDWAY PTSUNNY   82  66  58 W15G24    29.92R HX  84           
AURORA         PTSUNNY   82  67  60 SW14      29.93R HX  84           
WAUKEGAN       SUNNY     82  64  54 VRB5      29.89R HX  83           
DUPAGE AIRPORT MOSUNNY   82  67  60 SW13      29.92R HX  84           
WHEELING       PTSUNNY   83  65  54 W9        29.92R HX  85           
NORTHERLY ISL    N/A     81  63  54 W8          N/A  HX  82           
$$

LMZ740>746-201800-
SOUTHERN LAKE MICHIGAN
  
STATION/POSITION SKY/WX   TEMP    WIND        PRES    VSBY  WAVE
                          AIR SEA DIR/SP/G                  HT/PER
                          (F)     (DEG/KT/KT) (MB)    (MI)  (FT/S)
SOUTHERN BUOY              68 67  280/  2/  4 1011.7R         0
WAUKEGAN HARBOR            79     260/  6/ 13   N/A
HARRISON CRIB              77     140/  5/  8   N/A
BURNHAM HARBOR             81     250/  9/ 12   N/A
CALUMET HARBOR             80     200/  9/ 11 1011.5R
BURNS HARBOR               75      CALM  /  2   N/A
MICHIGAN CITY              71     240/  6/  7   N/A
MICHIGAN CITY 6N           72 71  260/  4/  6   N/A           1
ST. JOSEPH                 70 71  220/  8/ 10   N/A           1
$$

ILZ025>027-034>036-040-047-049-050-058-095>099-201800-
WEST-CENTRAL ILLINOIS
  
CITY           SKY/WX    TMP DP  RH WIND       PRES   REMARKS
QUINCY         CLOUDY    76  73  91 SE10      29.96F                  
MACOMB*        RAIN      68  68 100 CALM      29.99S                  
$$

ILZ028>032-037-038-041>044-048-051>054-059>061-201800-
CENTRAL ILLINOIS
  
CITY           SKY/WX    TMP DP  RH WIND       PRES   REMARKS
DECATUR        LGT RAIN  71  69  93 E5        29.96F                  
PEORIA         CLOUDY    74  70  87 SW8       29.95R                  
SPRINGFIELD    CLOUDY    70  68  93 SW8       29.97R                  
TAYLORVILLE    NOT AVBL                                               
$$

ILZ033-039-045-046-055>057-062-063-201800-
EAST-CENTRAL ILLINOIS
  
CITY           SKY/WX    TMP DP  RH WIND       PRES   REMARKS
CHAMPAIGN      LGT RAIN  73  70  90 W10       30.02R                  
MATTOON        LGT RAIN  72  67  84 W7        30.01R                  
$$

ILZ079-100>102-201800-
SOUTHWEST ILLINOIS
  
CITY           SKY/WX    TMP DP  RH WIND       PRES   REMARKS
ALTON          CLOUDY    81  77  89 S9        29.98R HX  88           
BELLEVILLE     MOSUNNY   83  76  79 E5        29.98R HX  91           
CAHOKIA*       CLOUDY    86  74  67 VRB3      29.98R HX  94           
$$

ILZ064>066-069>071-074>076-080>082-084>086-088>090-092>094-201800-
SOUTH-CENTRAL ILLINOIS
  
CITY           SKY/WX    TMP DP  RH WIND       PRES   REMARKS
CARBONDALE     CLOUDY    84  73  69 W5        29.98R HX  90           
MARION         PTSUNNY   84  75  74 S7        29.99R HX  92           
MT. VERNON     CLOUDY    79  72  78 SW5       30.00R HX  82           
SALEM*         CLOUDY    75  71  85 NE6       30.02R                  
$$

ILZ067-068-072-073-078-083-087-091-201800-
SOUTHEAST ILLINOIS
  
CITY           SKY/WX    TMP DP  RH WIND       PRES   REMARKS
LAWRENCEVILLE  LGT RAIN  79  74  84 W8        30.00R HX  82           
HARRISBURG*    CLOUDY    83  77  80 CALM      29.99R HX  92           
ROBINSON*      CLOUDY    79  76  91 W8        30.01R HX  83           
$$

ABBREVIATIONS USED IN REMARKS
   TC - TEMPERATURE IN CELSIUS
  WCI - WIND CHILL INDEX
   HX - HEAT INDEX
  VSB - VISIBILITY
$$


Return to Home page


Western Regional Climate Center, wrcc@dri.edu